User: anonymous
Location: Brainerd
(46.3580°N, 94.2010°W)
Time: 08:48:38
(UTC-05:00)
Language:

CZ-4C R/B - Orbit

View from above orbital plane
View from above orbital plane
View from above satellite
View from above satellite

Ground track
Ground track

The orbit data is extracted from the following two-line orbital elements,

1 32290U 07055B   14202.81930376  .00001435  00000-0  59259-4 0  9086
2 32290 097.5747 277.7366 0086622 288.6681 186.7925 15.22454703369546
Epoch (UTC): 21 July 2014 19:39:47
Eccentricity: 0.0086622
inclination: 97.5747°
perigee height: 439 km
apogee height: 558 km
right ascension of ascending node: 277.7366°
argument of perigee: 288.6681°
revolutions per day: 15.22454703
mean anomaly at epoch: 186.7925°
orbit number at epoch: 36954

The dashed part of the orbit path shows where the satellite is in the earth's shadow,  

DLR